Погода в Сочи

Поиск расширенной информации на нашем сайте:

Полезная информация:

Новости сайта



02.01.2020
Опубликован Долгосрочный прогноз погоды по городам России и ближнего зарубежья на январь 2020 года.
Карты: Прогноз на январь и февраль 2020 года, Сравнение прогнозируемой аномалии приземной температуры воздуха на январь 2020 года по разным моделям.




Погода в Сочи - сегодня

Время (UTC), дата Ветер
(°,м/с) 
Видим.   Явления Облачность Т
(°С)
Тd
(°С)
f(%) Тe
(°С)
Pmin
(гПа)
dP
(гПа)
Po
(мм)
O2
(г/м3)
Тmin Tmax R s Состояние
почвы
15 18.10.20 280 (З) 20000 м    8/3 1000 м средняя 
[Cu Sc|Ac trans]
+25.1 +19 69 +41  1013.3  759  276           
18 18.10.20 070 (В) 4000 м    8/0 верхняя 
[Ci fib]
+18.2 +15.1 82 +28  1015.4  0.8  760  284           
21 18.10.20 260 (З) 4000 м    9/0 средняя 
[Ac trans]
+19 +13 68 +26  1015  -0.4  760  284           
00 19.10.20 060 (СВ) 4000 м    10/1 480 м средняя 
[Frnb|Ac trans]
+20.2 +18 87 +34  1016.6  1.6  761  281           
03 19.10.20 070 (В) 4000 м    6/0 средняя 
[Ac trans]
+18.6 +15.6 83 +28  1016.6  761  284  +16         
06 19.10.20 060 (СВ) 20000 м    10/6 930 м средняя 
[Sc|Ac und]
+19.9 +14 69 +28  1016.6  761  283           
09 19.10.20 140 (ЮВ) 20000 м    10/8 750 м кучево-дожд., средняя 
[Cb cap|Ac und]
+21.7 +18.2 81 +36  1016.3  -0.2  761  280           
12 19.10.20 150 (ЮВ) 10 км  гроза, ливневой дождь  10/10 1500 м кучево-дожд. 
[Cb cap]
+21 +18.6 86 +36  1016  -0.4  761  280           
15 19.10.20 350 (С) 4000 м  слаб. ливневой дождь{гроза}  10/9 600 м кучево-дожд., средняя 
[Cb cap|Ac und]
+17.6 +16.3 92 +30  1019.2  3.2  763  285    +23.6  11     
18 19.10.20 340 (С) 2{11}  4000 м  {гроза, ливн. осадки}  5/0 средняя 
[Ac trans]
+16.2 +14.1 87 +24  1021  1.8  764  288           
21 19.10.20 340 (С) 4000 м    3/3 1500 м 
[Sc]
+14.8 +13 89 +20  1023.2  2.2  766  290           
00 20.10.20 060 (СВ) 4000 м    ясно 
+12.5 +11.8 95 +16  1022.7  -0.5  766  293           
03 20.10.20 090 (В) 4000 м    4/0 средняя 
[Ac trans]
+11.4 +10.3 93 +13  1022.9  0.2  766  294  +10.7    0.0     
06 20.10.20 060 (СВ) 20000 м    8/0 средняя 
[Ac trans]
+15.8 +10.7 72 +19  1023.9  767  290           
09 20.10.20 270 (З) 20000 м    3/0 средняя 
[Ac trans]
+19.4 +9.4 52 +20  1023.7  -0.2  766  287           
12 20.10.20 290 (З) 20000 м    8/0 средняя, верхняя 
[Ac trans|Ci fib]
+18.9 +9 53 +19  1023.1  -0.6  766  287           
15 20.10.20 340 (С) 4000 м    8/0 средняя 
[Ac trans]
+17.5 +8.6 56 +18  1023.3  0.2  766  289    +20.5       
18 20.10.20 060 (СВ) 4000 м    3/0 средняя 
[Ac trans]
+12.7 +9.8 82 +15  1023.8  0.5  767  293           
21 20.10.20 060 (СВ) 4000 м    ясно 
+11.4 +8.8 84 +11  1024.3  0.5  767  295           
00 21.10.20 070 (В) 4000 м    ясно 
+10.7 +8.5 86 +10  1024.7  0.4  767  296           
03 21.10.20 070 (В) 4000 м    ясно 
+10.7 +7 78 +9  1025.8  1.1  768  297  +9.8         
06 21.10.20 050 (СВ) 20000 м    3/3 600 м 
[Sc]
+14.7 +6.7 59 +14  1027.4  1.6  769  293           
09 21.10.20 140 (ЮВ) 5{11}  20000 м    6/6 1050 м 
[Sc]
+19.7 +9.8 53 +20  1027.3  -0.1  769  287           
12 21.10.20 190 (Ю) 2{11}  20000 м    1/1 600 м 
[Sc]
+19.1 +11.1 60 +22  1026.5  -0.8  769  287           
15 21.10.20 070 (В) 4000 м    1/1 600 м 
[Sc]
+16.9 +11.5 70 +21  1025.7  -0.8  768  289    +20.5       
Время (UTC), дата Ветер
(°,м/с) 
Видим.   Явления Облачность Т
(°С)
Тd
(°С)
f(%) Тe
(°С)
Pmin
(гПа)
dP
(гПа)
Po
(мм)
O2
(г/м3)
Тmin Tmax R s Состояние
почвы

Для получения пояснительной информации подведите курсор к названию столбца.

ПОГОДА в Сочи - архив

Всё, что Вы хотите узнать о погоде в Сочи - удобно и подробно!

Выберите нужную дату (начиная с 1 января 2019* года) и нажмите кнопку "Найти".
Будут отображены архивные сводки погоды по пункту Сочи, начиная с указанной даты.


Отображать данные в формате CSV (для использования в таблицах Excel)


Внимание! Наш архив погоды предназначен исключительно для личного некоммерческого использования в познавательных целях. Если Вам необходимы официальные справки о состоянии погоды (для производственных, юридических, коммерческих и т.п. целей), обращайтесь в органы Росгидромета.

*Примечание: данная дата относится к архиву по метеостанциям СССР (Россия, СНГ, Балтия).
Архив по метеостанциям Зарубежной Европы и Азии (кроме Китая) хранится 10 дней, по другим регионам земного шара (Китай, Африка, Америка, Австралия, Океания) - 1 день.

Сочи - район местоположения метеостанции


Название, широта, долгота, высота метеостанции:
Сочи (Адлер) 43.4°ш. 39.9°д. 13 м над ур. моря [Российская Федерация]

Дополнительная информация

В oтличие oт бoльшинства пoгoдных сайтoв мы публикуем пoдрoбную метеoинфoрмацию в детальнoм прoфессиoнальнoм фoрмате.

Характеристики температуры и влажнoсти вoздуха измеряются на высoте 2 м в тени вдали oт зданий и деревьев.
Скoрoсть ветра измеряется на высoте 10 м (на урoвне рoста челoвека скoрoсть ветра ниже в 1.5-2 раза). Если метеoстанция нахoдится в гoрoде или в лесу, тo скoрoсть ветра занижена на 2-4 м/с пo сравнению с oткрытым местoм. Скoрoсть ветра над акватoриями крупных рек и oзёр, а также на вершинах хoлмoв на 2-5 м/с выше, чем в oбычных услoвиях.
Атмoсфернoе давление в разных тoчках местнoсти мoжет значительнo oтличаться oт давления на метеoстанции, в зависимoсти oт услoвий рельефа (при пoдъёме на 10 м давление пoнижается примернo на 1 мм рт.ст.).